Flag for Canada Weather past 2 weeks in St. Catharines, Ontario, Canada

Now
32 °F

Overcast.


Feels Like: 22 °F
Forecast: 31 / 34 °F
Wind: 13 mph from West

Location: Saint Catharines Airport

Current Time: Dec 18, 2014 at 3:27:18 PM

Latest Report: Dec 18, 2014 at 3:00 PM


Visibility: 15 mi

Pressure: 30.09 "Hg

Humidity: 87%

Dew point: 28 °F

Location of St. CatharinesLocation

Historic Weather in St. Catharines — Graph

°F

St. Catharines temperature yesterday

Maximum temperature yesterday: 41 °F (at 7:00 AM)
Minimum temperature yesterday: 32 °F (at 8:00 PM)
Average temperature yesterday: 35 °F

Past Weeks' High & Low Weather Summary

 TemperatureHumidityPressure
High45 °F (Dec 9, 12:00 PM)100% (Dec 9, 8:00 PM)30.78 "Hg (Dec 9, 8:00 PM)
Low23 °F (Dec 7, 8:00 PM)31% (Dec 8, 3:00 PM)29.71 "Hg (Dec 16, 2:00 PM)
Average34 °F79%30.14 "Hg
* Reported Dec 3 2:00 PM — Dec 18 2:00 PM, St. Catharines, Weather by CustomWeather, © 2014

Note: Actual official high and low records may vary slightly from our data, if they occured in-between our weather recording intervals... More about our weather records

Advertising

St. Catharines weather history for previous 24 hours

 ConditionsComfort  
Time TempWeatherWind HumidityBarometerVisibility
2:00 PM
Dec 18
32 °FSnow flurries. Overcast.14 mph87%30.08 "Hg10 mi
1:00 PM34 °FOvercast.9 mph75%30.09 "Hg15 mi
12:00 PM34 °FOvercast.9 mph75%30.11 "Hg15 mi
11:00 AM34 °FMostly cloudy.9 mph75%30.12 "Hg12 mi
10:00 AM34 °FOvercast.12 mph75%30.12 "Hg12 mi
9:00 AM34 °FCloudy.14 mph81%30.11 "Hg12 mi
8:00 AM32 °FMore clouds than sun.10 mph87%30.11 "Hg10 mi
7:00 AM32 °FOvercast.13 mph87%30.11 "Hg10 mi
9:00 PM
Dec 17
32 °FMostly cloudy.14 mph93%30.01 "Hg15 mi
8:00 PM32 °FMostly cloudy.15 mph93%30.01 "Hg12 mi
7:00 PM34 °FMostly cloudy.15 mph81%29.99 "Hg15 mi
6:00 PM34 °FMostly cloudy.16 mph87%29.96 "Hg15 mi
5:00 PM34 °FMostly cloudy.15 mph87%29.96 "Hg12 mi
4:00 PM34 °FOvercast.18 mph93%29.94 "Hg10 mi
3:46 PM34 °FOvercast.21 mph93%29.94 "Hg10 mi
3:00 PM36 °FMostly cloudy.17 mph87%29.93 "Hg8 mi
Weather by CustomWeather, © 2014

See weather overviewHow to use our weather pages